RH
78 79 82 82 82 82 82 82 82 82 81 82 83 85 86 88 88 38 10 19 34 83 70 28 26 25 22 22 18 17 21 14 13 14 14 13 15 15 15 17 18 20 20 22 27
78 80 82 82 81 80 82 82 82 82 82 83 84 85 87 89 22 10 41 81 77 80 29 24 26 24 22 16 13 15 15 11 10 11 12 13 14 16 18 18 21 22 23 24 26
79 80 80 77 78 80 81 81 82 82 82 83 84 85 88 71 15 9 82 82 77 71 16 17 14 18 16 9 9 11 12 8 9 10 10 11 15 15 16 20 18 21 25 26 28
79 79 78 77 77 79 80 81 82 82 83 84 85 87 86 20 10 18 86 79 78 30 15 15 12 15 11 9 7 10 9 7 7 8 9 11 10 14 16 15 13 15 21 24 27
80 80 79 79 80 78 79 81 82 83 83 84 86 87 26 10 5 36 87 71 34 29 15 12 11 12 10 8 8 8 8 7 6 6 10 9 10 12 14 14 15 15 20 24 24
81 81 83 83 82 82 81 81 82 83 84 85 86 90 20 7 8 28 26 28 17 15 11 9 7 6 6 7 9 8 7 7 7 7 10 12 10 11 13 13 17 17 21 22 23
81 83 83 83 82 82 81 80 82 83 84 83 83 35 8 5 3 17 18 18 13 10 9 6 5 5 8 8 7 7 9 8 7 8 10 10 11 11 12 13 18 19 20 22 23
80 81 83 84 84 83 82 80 81 80 82 81 79 22 9 3 3 9 12 14 11 8 6 4 4 4 7 7 7 8 8 9 7 10 11 11 16 13 9 12 19 20 20 21 23
80 83 85 86 85 85 83 82 79 77 76 72 31 14 6 15 4 6 8 11 10 8 5 4 6 6 6 8 9 8 9 9 8 10 10 13 13 11 9 10 16 19 21 22 23
82 84 86 86 85 85 82 84 55 62 51 23 14 10 5 4 3 3 3 7 6 6 6 7 6 6 6 6 9 9 8 7 9 9 10 11 12 8 9 10 12 14 20 23 24
82 84 86 86 85 84 56 11 13 20 13 6 6 5 3 3 4 5 3 3 5 5 7 6 6 6 6 6 6 6 7 8 8 7 8 9 10 8 7 6 9 12 16 21 22
81 84 85 86 85 82 49 9 11 10 12 6 5 5 4 4 5 4 4 5 6 7 5 6 6 5 4 5 6 7 8 8 7 6 6 8 9 8 8 7 7 9 13 18 20
83 84 86 87 80 52 8 9 10 7 11 6 4 4 4 4 5 4 4 5 5 6 6 6 5 4 4 5 7 6 7 7 7 6 5 9 11 11 8 7 7 7 8 12 18
83 84 86 89 45 10 10 11 7 8 12 6 4 4 4 3 5 3 3 5 6 7 6 6 4 5 5 5 6 7 5 5 5 6 7 6 11 13 8 8 7 7 8 9 14
82 84 86 89 29 12 8 6 6 11 16 5 4 3 3 4 5 4 3 4 7 7 7 8 5 5 5 5 5 6 4 5 5 7 7 6 9 12 9 10 8 8 9 11 11
83 83 85 23 19 13 8 7 9 14 16 6 4 4 4 4 4 5 4 4 4 7 7 7 4 4 5 4 4 4 5 6 7 6 9 9 8 10 10 10 8 7 10 12 13
82 83 75 32 10 8 9 9 14 15 7 7 5 4 4 4 4 4 6 7 7 11 11 7 6 4 4 5 4 4 6 10 11 9 9 7 8 11 8 7 7 8 10 13 16
83 83 49 26 14 14 12 11 22 11 9 5 5 5 5 4 4 4 5 6 6 6 7 8 10 6 5 5 6 6 7 9 18 11 9 8 12 11 8 6 6 7 13 14 17
84 14 11 14 18 17 14 13 15 12 8 7 6 6 6 5 5 5 6 5 5 6 10 8 9 5 5 4 5 7 9 5 8 8 8 8 10 8 6 6 5 6 18 19 25
37 16 12 18 19 18 12 20 10 8 8 8 10 8 8 6 7 7 7 5 4 4 5 7 10 5 5 4 4 5 5 9 7 18 18 9 10 8 10 7 13 20 26 31 31
35 12 22 17 20 16 10 10 8 6 9 10 9 9 8 9 8 8 6 5 4 4 4 5 8 8 6 7 7 6 6 8 6 8 12 12 11 11 10 16 19 26 31 33 34
15 13 18 15 20 10 9 8 19 7 7 8 9 9 10 9 10 9 8 8 7 5 5 6 6 10 7 5 5 5 7 8 10 16 11 11 10 10 13 16 18 28 32 32 32
17 10 17 15 19 10 9 7 7 8 9 8 9 8 8 9 14 10 9 9 11 10 9 7 8 10 10 6 6 7 6 7 8 10 16 13 16 14 15 24 26 29 34 35 36
18 18 21 19 14 17 14 11 9 6 7 7 8 8 9 10 11 13 10 9 10 12 54 24 10 12 8 10 7 10 7 7 8 12 12 9 15 23 27 27 28 28 34 33 37
21 17 27 25 14 13 15 17 20 16 10 10 12 9 10 13 12 12 9 9 8 33 17 13 19 11 8 6 6 7 6 6 8 9 11 13 37 32 32 32 32 28 34 37 36
25 27 27 26 27 25 29 22 21 19 16 16 15 10 10 13 12 13 9 11 12 11 14 14 22 18 14 8 7 8 6 6 6 7 8 11 29 29 28 33 34 32 29 36 38
14 16 28 34 22 23 25 24 18 17 18 13 12 13 13 11 8 7 7 11 13 16 18 20 23 26 17 9 9 10 7 6 7 7 9 22 33 26 32 41 44 42 35 32 30
Wind_Speed
19 19 19 19 19 19 19 20 20 20 19 17 18 19 16 13 13 7 12 2 9 18 6 12 11 10 10 14 12 14 11 5 7 9 5 8 7 4 4 10 3 3 7 19 19
20 19 20 20 20 20 20 20 20 21 21 20 19 17 16 13 13 16 11 13 21 20 16 14 11 8 9 10 6 13 10 7 5 6 6 9 6 5 7 11 6 9 8 17 19
20 20 19 20 21 20 20 20 21 21 21 21 20 20 16 17 13 3 9 18 20 21 13 13 8 9 14 12 9 11 11 7 5 8 3 2 8 3 6 11 11 13 13 18 18
20 20 21 21 22 21 21 21 20 20 21 20 19 19 19 8 6 8 11 19 17 18 12 11 11 13 14 11 4 10 12 6 4 3 5 5 4 8 7 7 3 9 16 18 18
20 20 21 21 22 22 22 21 20 20 21 20 18 16 13 10 9 11 13 17 18 16 14 12 12 12 15 14 11 13 10 10 12 4 5 12 9 5 7 6 5 12 16 18 17
20 20 21 21 22 22 22 21 22 21 20 19 16 12 11 16 9 14 16 20 17 16 16 13 12 9 15 17 15 18 13 15 16 9 4 9 10 10 6 7 8 13 16 17 17
21 21 22 22 24 24 24 24 23 21 20 19 11 8 12 14 1 13 17 20 17 14 13 12 14 15 13 12 17 13 18 18 17 2 5 7 13 11 7 11 11 14 15 16 16
20 21 22 23 24 25 26 26 23 24 19 14 8 11 12 2 6 13 17 18 17 12 14 9 8 15 17 15 16 19 17 15 12 4 9 8 8 12 7 13 12 14 15 15 16
20 22 22 24 25 26 28 29 26 19 11 9 8 11 17 3 12 15 18 18 17 14 14 9 12 15 17 17 17 18 16 17 17 6 4 7 15 8 5 6 11 14 14 15 16
19 20 22 24 26 26 30 31 7 7 8 10 10 9 18 14 14 17 19 17 15 16 14 14 15 16 15 15 15 18 18 16 14 7 7 14 16 13 8 7 11 13 16 16 16
19 20 23 25 26 26 20 11 10 9 16 16 8 13 3 6 4 12 14 19 17 17 19 20 16 18 20 19 20 18 20 17 17 11 11 14 18 17 13 12 10 11 14 15 17
20 21 23 25 27 26 13 10 7 8 13 19 21 21 18 6 7 15 17 17 20 22 20 19 19 19 18 16 13 15 15 18 17 18 18 13 19 14 12 13 11 11 15 15 16
20 21 24 28 27 13 10 9 5 11 10 20 23 23 23 21 20 17 18 21 21 22 22 21 19 18 18 13 14 18 18 17 17 16 19 12 17 17 19 14 6 7 7 14 16
20 21 22 30 9 13 8 4 8 7 9 20 25 23 22 19 25 23 20 21 24 22 19 20 19 18 11 14 15 20 16 17 17 15 14 17 15 17 7 9 9 7 9 10 13
20 19 19 10 13 9 9 10 11 6 9 11 25 9 25 25 19 24 25 20 25 22 18 18 19 18 20 18 18 17 14 15 13 14 17 20 14 12 11 7 11 10 6 4 4
21 20 18 7 11 13 12 11 9 10 11 10 5 11 19 24 26 25 26 27 20 25 22 22 19 18 16 17 20 18 15 15 14 16 15 18 17 16 13 1 7 6 8 6 2
22 21 13 10 9 8 11 10 10 14 12 19 12 15 21 24 25 26 21 21 22 22 24 25 20 15 11 17 16 18 15 12 14 14 13 17 19 16 6 6 2 7 8 4 1
26 29 9 10 8 9 10 11 17 15 22 3 6 12 14 17 20 26 25 23 28 29 20 22 21 23 17 18 14 16 17 13 15 13 12 18 9 9 9 5 4 6 3 1 7
30 10 9 7 6 7 10 14 16 17 6 13 15 13 19 21 11 20 24 25 25 25 26 21 22 21 27 20 19 18 18 20 20 17 12 12 11 9 5 10 8 6 7 5 8
10 11 9 8 6 8 10 16 19 20 7 7 15 22 16 18 17 20 17 21 26 26 25 23 22 16 18 15 20 22 15 12 11 16 16 13 12 8 9 5 14 11 10 7 9
8 7 8 3 7 9 12 16 18 22 5 12 17 14 14 10 11 16 16 18 18 24 23 22 20 16 16 12 19 15 15 14 17 15 12 13 7 12 10 13 10 9 9 10 11
7 6 5 5 9 10 13 17 11 16 12 14 15 14 16 15 11 18 14 6 5 12 15 18 16 13 17 17 17 19 20 20 14 15 13 13 12 10 10 10 7 10 10 10 11
6 9 7 6 9 10 10 11 8 13 16 18 15 17 16 16 11 15 15 10 5 10 5 16 18 14 18 16 15 11 16 16 20 17 19 13 5 10 10 12 7 9 11 10 11
6 5 7 7 11 11 7 8 12 13 12 16 17 17 15 16 13 11 11 4 2 9 12 7 12 16 16 19 15 22 19 17 16 12 14 16 9 14 10 8 9 8 10 11 12
7 3 8 4 8 10 5 5 9 12 10 11 11 18 17 16 17 16 14 12 9 5 3 7 12 17 17 21 16 19 21 23 23 18 17 6 20 17 8 11 10 5 7 9 10
7 6 12 13 11 10 7 8 7 7 16 12 14 16 15 18 18 15 14 12 10 7 6 4 8 14 13 18 16 19 13 19 22 19 18 12 12 13 4 12 12 10 5 6 7
6 9 7 11 11 12 4 9 7 8 13 14 16 12 13 15 15 19 15 7 6 8 7 6 9 7 15 18 14 18 18 14 10 15 8 5 14 13 12 13 11 10 9 6 1
Wind_Direction
359 356 352 350 347 344 340 337 336 333 330 330 325 320 322 320 297 213 243 42 159 166 198 178 202 230 237 263 248 273 280 36 55 39 122 128 116 82 68 124 102 81 42 126 144
357 354 350 347 345 342 337 335 332 327 325 324 319 316 316 321 280 253 124 115 143 166 186 183 200 209 238 242 244 260 291 24 60 44 27 105 317 114 217 124 140 127 113 129 154
354 352 349 346 341 337 334 331 327 324 320 318 318 317 316 310 270 152 153 143 156 182 194 217 271 227 257 251 240 279 317 2 38 41 6 327 160 226 251 166 155 163 161 154 166
353 349 345 343 339 333 331 326 322 318 315 314 313 313 314 262 310 77 152 159 169 194 209 224 244 248 264 274 190 268 292 297 322 334 305 262 312 174 232 68 97 155 164 165 177
349 346 343 339 333 329 326 322 317 315 312 311 311 315 308 243 263 119 147 171 176 219 213 216 242 253 272 291 304 265 277 305 294 310 312 303 257 271 220 211 163 146 166 174 180
347 343 339 335 331 326 322 320 315 313 309 306 306 305 249 271 96 135 156 174 189 212 218 230 246 278 286 284 287 306 307 294 281 271 253 278 261 206 212 194 172 163 178 183 182
344 340 336 331 328 324 320 317 313 309 303 299 294 268 267 258 314 163 172 190 207 218 234 234 257 260 260 266 267 286 281 279 266 171 304 272 247 222 205 169 187 180 187 189 189
343 338 333 328 325 321 317 312 309 304 296 286 271 240 268 109 225 183 189 198 217 234 255 276 254 259 269 280 277 266 274 276 268 153 136 258 43 245 175 170 196 193 191 199 192
342 336 332 327 323 319 314 307 302 293 266 270 232 230 267 126 210 205 199 208 206 224 238 260 248 248 249 243 255 249 251 254 262 153 290 235 292 167 176 187 199 196 205 201 200
340 336 329 326 322 318 314 293 280 293 223 234 260 264 240 234 208 211 207 218 214 215 220 227 240 245 227 248 248 248 243 234 258 285 175 253 248 260 178 203 214 220 195 205 208
339 335 329 324 321 317 321 300 223 198 223 241 199 227 153 217 193 213 203 201 228 227 223 217 237 237 243 240 243 275 281 294 297 309 287 274 290 288 274 272 206 214 206 205 207
337 336 330 323 316 314 287 291 42 334 293 262 252 262 263 182 249 220 176 201 207 226 224 239 228 247 263 261 280 272 268 261 267 273 274 285 274 276 296 282 279 213 195 201 209
334 336 331 322 317 290 307 291 341 327 262 268 237 235 228 231 240 235 194 212 208 224 233 235 241 231 235 249 248 255 258 266 274 285 278 249 269 272 256 246 231 254 262 197 203
333 335 333 326 292 336 289 12 305 322 269 261 216 225 230 229 229 231 222 222 228 239 238 246 236 254 238 248 246 258 251 258 265 263 266 255 262 246 264 237 287 178 170 206 191
330 330 326 328 312 289 6 317 315 248 265 229 209 194 207 206 214 209 218 215 236 230 240 258 235 245 237 232 242 259 277 272 269 269 268 255 263 287 273 220 242 117 75 35 317
323 321 334 293 244 261 294 294 259 232 242 255 174 198 223 204 223 237 205 213 227 240 250 247 261 233 241 242 242 256 255 255 252 251 250 245 255 259 251 322 276 77 77 359 357
312 306 296 301 270 346 314 267 224 238 221 259 232 222 211 219 220 227 200 218 220 227 235 244 229 239 244 257 232 226 227 237 233 228 243 242 225 238 341 353 331 341 29 345 81
314 306 255 236 256 257 258 234 245 242 248 85 316 298 246 218 224 209 225 219 219 230 240 226 232 225 212 228 241 209 235 246 247 246 254 208 219 254 250 338 293 233 89 117 135
307 280 242 234 215 247 248 229 229 257 348 308 301 268 261 237 266 212 217 229 232 213 234 241 225 234 214 211 223 242 212 241 265 275 278 273 217 204 225 240 241 189 99 101 109
313 296 257 110 200 220 239 250 252 258 342 301 265 269 249 252 193 242 215 221 235 229 214 239 256 238 186 211 224 234 237 233 241 261 277 244 246 256 165 216 78 94 105 130 136
266 267 79 194 208 224 235 234 240 269 249 269 278 297 290 320 326 281 216 237 219 232 224 225 244 233 204 191 226 204 237 254 262 237 263 249 252 49 76 75 87 94 123 148 143
286 261 103 175 227 222 239 239 270 286 262 246 268 291 302 312 300 289 285 337 66 280 237 212 230 235 226 204 226 240 209 223 248 246 274 302 297 91 100 106 89 112 134 145 146
281 290 135 229 253 233 225 263 282 271 267 257 253 252 266 279 283 257 290 65 36 265 242 230 234 227 243 241 203 241 251 230 221 244 268 270 285 74 91 82 85 130 140 148 141
277 258 159 201 267 287 323 258 247 229 254 275 279 278 275 272 258 272 287 131 12 342 356 307 245 232 248 231 226 199 228 248 246 249 235 249 214 124 93 82 87 148 148 158 160
240 290 8 275 227 230 268 301 298 298 243 257 260 244 254 254 257 264 249 281 184 118 245 246 251 251 247 271 278 266 211 216 236 233 253 306 59 54 56 78 73 90 148 163 173
297 340 356 293 282 273 236 251 266 293 301 266 246 267 248 233 253 255 256 270 279 175 225 230 255 261 261 253 252 258 257 213 218 217 235 236 118 113 104 75 67 59 104 162 181
4 291 269 293 255 252 2 292 307 330 296 269 273 290 257 266 229 247 262 308 333 300 341 302 306 233 243 236 238 240 243 248 240 213 261 352 89 113 96 77 58 51 46 27 189